START_TIME,STEP,MOV.,AL01,t_acc.,AL02,t_acc.,E37,t_acc.,H21,t_acc.
1979-07-02 21:00:35.160 ,0,0,0.,24.0,0.,24.0,0.,24.0,0.,24.0
1979-07-02 21:00:59.160 ,0,1,0.,24.0,0.,24.0,0.,24.0,0.,24.0
1979-07-02 21:01:23.160 ,0,0,0.,24.0,1.,24.0,0.,24.0,0.,24.0
1979-07-02 21:01:47.160 ,1,1,0.,24.0,0.,24.0,0.,24.0,0.,24.0
1979-07-02 21:02:11.160 ,1,0,1.,24.0,0.,24.0,0.,24.0,0.,24.0
1979-07-02 21:02:35.160 ,2,1,0.,24.0,0.,24.0,0.,24.0,0.,24.0
1979-07-02 21:02:59.160 ,2,0,0.,24.0,0.,24.0,0.,24.0,0.,24.0
1979-07-02 21:03:23.160 ,3,1,0.,24.0,0.,24.0,0.,24.0,0.,24.0
1979-07-02 21:03:47.160 ,3,0,0.,24.0,0.,24.0,0.,24.0,0.,24.0
1979-07-02 21:04:11.160 ,4,1,0.,24.0,0.,24.0,1.,24.0,0.,24.0
1979-07-02 21:04:35.160 ,4,0,0.,24.0,1.,24.0,0.,24.0,0.,24.0
1979-07-02 21:04:59.160 ,5,1,0.,24.0,0.,24.0,0.,24.0,0.,24.0
1979-07-02 21:05:23.160 ,5,0,0.,24.0,0.,24.0,0.,24.0,0.,24.0
1979-07-02 21:05:47.160 ,6,1,0.,24.0,0.,24.0,0.,24.0,0.,24.0
1979-07-02 21:06:11.160 ,6,0,0.,24.0,0.,24.0,0.,24.0,0.,24.0
1979-07-02 21:06:35.160 ,7,0,7.,24.0,0.,24.0,0.,24.0,0.,24.0
1979-07-02 21:06:59.160 ,7,0,32.,24.0,0.,24.0,0.,24.0,0.,24.0
1979-07-02 21:07:23.160 ,5,1,13.,24.0,0.,24.0,0.,24.0,0.,24.0
1979-07-02 21:07:47.160 ,1,1,0.,24.0,0.,24.0,0.,24.0,0.,24.0
1979-07-02 21:08:11.160 ,2,1,0.,24.0,0.,24.0,0.,24.0,0.,24.0
1979-07-02 21:08:35.160 ,6,1,0.,24.0,0.,24.0,1.,24.0,0.,24.0
1979-07-02 21:08:59.160 ,5,1,19.,24.0,0.,24.0,0.,24.0,0.,24.0
1979-07-02 21:09:23.160 ,1,1,0.,24.0,0.,24.0,1.,24.0,0.,24.0
1979-07-02 21:09:47.160 ,2,1,0.,24.0,0.,24.0,0.,24.0,0.,24.0
1979-07-02 21:10:11.160 ,6,1,0.,24.0,0.,24.0,1.,24.0,0.,24.0
1979-07-02 21:10:35.160 ,5,1,16.,24.0,0.,24.0,0.,24.0,0.,24.0
1979-07-02 21:10:59.160 ,1,1,0.,24.0,0.,24.0,0.,24.0,0.,24.0
1979-07-02 21:11:23.160 ,2,1,0.,24.0,0.,24.0,0.,24.0,0.,24.0
1979-07-02 21:11:47.160 ,6,1,0.,24.0,1.,24.0,0.,24.0,0.,24.0
1979-07-02 21:12:11.160 ,5,1,19.,24.0,0.,24.0,0.,24.0,0.,24.0
1979-07-02 21:12:35.160 ,1,1,0.,24.0,0.,24.0,0.,24.0,0.,24.0
1979-07-02 21:12:59.160 ,2,1,0.,24.0,0.,24.0,0.,24.0,0.,24.0
1979-07-02 21:13:23.160 ,6,1,0.,24.0,0.,24.0,0.,24.0,0.,24.0
1979-07-02 21:13:47.160 ,5,1,8.,24.0,0.,24.0,0.,24.0,0.,24.0
1979-07-02 21:14:11.160 ,1,1,1.,24.0,0.,24.0,0.,24.0,0.,24.0
1979-07-02 21:14:35.160 ,2,1,0.,24.0,1.,24.0,0.,24.0,0.,24.0
1979-07-02 21:14:59.160 ,6,1,0.,24.0,0.,24.0,0.,24.0,0.,24.0
1979-07-02 21:15:23.160 ,5,1,5.,24.0,0.,24.0,0.,24.0,0.,24.0
1979-07-02 21:15:47.160 ,1,1,0.,24.0,0.,24.0,0.,24.0,0.,24.0
1979-07-02 21:16:11.160 ,2,1,0.,24.0,0.,24.0,1.,24.0,0.,24.0
1979-07-02 21:16:35.160 ,6,1,0.,24.0,0.,24.0,0.,24.0,0.,24.0
1979-07-02 21:16:59.160 ,5,1,8.,24.0,0.,24.0,0.,24.0,0.,24.0
1979-07-02 21:17:23.160 ,1,1,0.,24.0,1.,24.0,0.,24.0,0.,24.0
1979-07-02 21:17:47.160 ,0,0,0.,24.0,0.,24.0,0.,24.0,0.,24.0
1979-07-02 21:18:11.160 ,0,0,0.,24.0,0.,24.0,0.,24.0,0.,24.0
1979-07-02 21:18:35.160 ,5,1,18.,24.0,1.,24.0,0.,24.0,0.,24.0
1979-07-02 21:18:59.160 ,5,0,0.,24.0,0.,24.0,0.,24.0,0.,24.0
1979-07-02 21:19:23.160 ,4,1,0.,24.0,0.,24.0,0.,24.0,0.,24.0
1979-07-02 21:19:47.160 ,4,0,0.,24.0,0.,24.0,0.,24.0,0.,24.0
1979-07-02 21:20:11.160 ,3,1,1.,24.0,0.,24.0,0.,24.0,0.,24.0
1979-07-02 21:20:35.160 ,3,0,2.,24.0,0.,24.0,0.,24.0,0.,24.0
1979-07-02 21:20:59.160 ,2,1,1.,24.0,0.,24.0,0.,24.0,0.,24.0
1979-07-02 21:21:23.160 ,2,0,0.,24.0,0.,24.0,0.,24.0,0.,24.0
1979-07-02 21:21:47.160 ,1,1,0.,24.0,0.,24.0,0.,24.0,0.,24.0
1979-07-02 21:22:11.160 ,1,0,0.,24.0,0.,24.0,1.,24.0,0.,24.0
1979-07-02 21:22:35.160 ,0,1,0.,24.0,1.,24.0,0.,24.0,0.,24.0
1979-07-02 21:22:59.160 ,0,0,0.,24.0,0.,24.0,0.,24.0,0.,24.0
1979-07-02 21:23:23.160 ,0,1,0.,24.0,0.,24.0,0.,24.0,0.,24.0
1979-07-02 21:23:47.160 ,0,0,0.,24.0,0.,24.0,0.,24.0,0.,24.0
1979-07-02 21:24:11.160 ,1,1,0.,24.0,0.,24.0,0.,24.0,0.,24.0
1979-07-02 21:24:35.160 ,1,0,0.,24.0,0.,24.0,0.,24.0,0.,24.0
1979-07-02 21:24:59.160 ,2,1,0.,24.0,0.,24.0,0.,24.0,0.,24.0
1979-07-02 21:25:23.160 ,2,0,0.,24.0,0.,24.0,0.,24.0,0.,24.0
1979-07-02 21:25:47.160 ,3,1,0.,24.0,0.,24.0,0.,24.0,0.,24.0
1979-07-02 21:26:11.160 ,3,0,0.,24.0,0.,24.0,0.,24.0,0.,24.0
1979-07-02 21:26:35.160 ,4,1,0.,24.0,0.,24.0,0.,24.0,0.,24.0
1979-07-02 21:26:59.160 ,4,0,0.,24.0,0.,24.0,2.,24.0,0.,24.0
1979-07-02 21:27:23.160 ,5,1,1.,24.0,0.,24.0,2.,24.0,0.,24.0
1979-07-02 21:27:47.160 ,5,0,0.,24.0,0.,24.0,0.,24.0,0.,24.0
1979-07-02 21:28:11.160 ,6,1,0.,24.0,0.,24.0,0.,24.0,0.,24.0
1979-07-02 21:28:35.160 ,6,0,2.,24.0,0.,24.0,0.,24.0,0.,24.0
1979-07-02 21:28:59.160 ,7,1,10.,24.0,0.,24.0,0.,24.0,0.,24.0
1979-07-02 21:29:23.160 ,7,0,26.,24.0,0.,24.0,0.,24.0,0.,24.0
1979-07-02 21:29:47.160 ,7,1,28.,24.0,0.,24.0,0.,24.0,0.,24.0
1979-07-02 21:30:11.160 ,7,0,39.,24.0,0.,24.0,0.,24.0,0.,24.0
1979-07-02 21:30:35.160 ,6,1,33.,24.0,0.,24.0,0.,24.0,0.,24.0
1979-07-02 21:30:59.160 ,6,0,1.,24.0,0.,24.0,0.,24.0,0.,24.0
1979-07-02 21:31:23.160 ,5,1,0.,24.0,0.,24.0,0.,24.0,0.,24.0
1979-07-02 21:31:47.160 ,5,0,0.,24.0,0.,24.0,1.,24.0,0.,24.0
1979-07-02 21:32:11.160 ,4,1,0.,24.0,0.,24.0,1.,24.0,0.,24.0
1979-07-02 21:32:35.160 ,4,0,0.,24.0,0.,24.0,1.,24.0,0.,24.0
1979-07-02 21:32:59.160 ,3,1,0.,24.0,0.,24.0,0.,24.0,0.,24.0
1979-07-02 21:33:23.160 ,3,0,0.,24.0,0.,24.0,0.,24.0,0.,24.0
1979-07-02 21:33:47.160 ,2,1,0.,24.0,0.,24.0,0.,24.0,0.,24.0
1979-07-02 21:34:11.160 ,2,0,0.,24.0,0.,24.0,0.,24.0,0.,24.0
1979-07-02 21:34:35.160 ,1,1,0.,24.0,0.,24.0,0.,24.0,0.,24.0
1979-07-02 21:34:59.160 ,1,0,1.,24.0,0.,24.0,0.,24.0,0.,24.0
1979-07-02 21:35:23.160 ,0,1,0.,24.0,1.,24.0,1.,24.0,0.,24.0
1979-07-02 21:35:47.160 ,0,0,0.,24.0,0.,24.0,0.,24.0,0.,24.0
1979-07-02 21:36:11.160 ,0,1,0.,24.0,0.,24.0,0.,24.0,0.,24.0
1979-07-02 21:36:35.160 ,0,0,0.,24.0,0.,24.0,0.,24.0,0.,24.0
1979-07-02 21:36:59.160 ,1,1,0.,24.0,0.,24.0,0.,24.0,0.,24.0
1979-07-02 21:37:23.160 ,1,0,0.,24.0,0.,24.0,0.,24.0,0.,24.0
1979-07-02 21:37:47.160 ,2,1,0.,24.0,0.,24.0,2.,24.0,0.,24.0
1979-07-02 21:38:11.160 ,2,0,0.,24.0,1.,24.0,0.,24.0,0.,24.0
1979-07-02 21:38:35.160 ,3,1,0.,24.0,0.,24.0,1.,24.0,0.,24.0
1979-07-02 21:38:59.160 ,3,0,0.,24.0,0.,24.0,0.,24.0,0.,24.0
1979-07-02 21:39:23.160 ,4,1,0.,24.0,0.,24.0,0.,24.0,0.,24.0
1979-07-02 21:39:47.160 ,4,0,0.,24.0,0.,24.0,0.,24.0,0.,24.0
1979-07-02 21:40:11.160 ,5,1,1.,24.0,0.,24.0,0.,24.0,0.,24.0
1979-07-02 21:40:35.160 ,5,0,0.,24.0,1.,24.0,0.,24.0,0.,24.0
1979-07-02 21:40:59.160 ,6,1,2.,24.0,0.,24.0,0.,24.0,0.,24.0
1979-07-02 21:41:23.160 ,6,0,1.,24.0,0.,24.0,0.,24.0,0.,24.0
1979-07-02 21:41:47.160 ,7,1,6.,24.0,0.,24.0,0.,24.0,0.,24.0
1979-07-02 21:42:11.160 ,7,0,24.,24.0,0.,24.0,0.,24.0,0.,24.0
1979-07-02 21:42:35.160 ,7,1,31.,24.0,0.,24.0,0.,24.0,0.,24.0
1979-07-02 21:42:59.160 ,7,0,36.,24.0,0.,24.0,0.,24.0,0.,24.0
1979-07-02 21:43:23.160 ,6,1,21.,24.0,0.,24.0,1.,24.0,0.,24.0
1979-07-02 21:43:47.160 ,6,0,0.,24.0,0.,24.0,0.,24.0,0.,24.0
1979-07-02 21:44:11.160 ,5,1,0.,24.0,0.,24.0,0.,24.0,0.,24.0
1979-07-02 21:44:35.160 ,5,0,0.,24.0,0.,24.0,1.,24.0,0.,24.0
1979-07-02 21:44:59.160 ,4,1,0.,24.0,0.,24.0,0.,24.0,0.,24.0
1979-07-02 21:45:23.160 ,4,0,0.,24.0,0.,24.0,0.,24.0,0.,24.0
1979-07-02 21:45:47.160 ,3,1,0.,24.0,0.,24.0,0.,24.0,0.,24.0
1979-07-02 21:46:11.160 ,3,0,0.,24.0,0.,24.0,0.,24.0,0.,24.0
1979-07-02 21:46:35.160 ,2,1,0.,24.0,0.,24.0,0.,24.0,0.,24.0
1979-07-02 21:46:59.160 ,2,0,0.,24.0,0.,24.0,1.,24.0,0.,24.0
1979-07-02 21:47:23.160 ,1,1,0.,24.0,0.,24.0,1.,24.0,0.,24.0
1979-07-02 21:47:47.160 ,1,0,0.,24.0,0.,24.0,2.,24.0,0.,24.0
1979-07-02 21:48:11.160 ,0,1,0.,24.0,0.,24.0,0.,24.0,0.,24.0
1979-07-02 21:48:35.160 ,0,0,0.,24.0,0.,24.0,0.,24.0,0.,24.0
1979-07-02 21:48:59.160 ,0,1,0.,24.0,0.,24.0,0.,24.0,0.,24.0
1979-07-02 21:49:23.160 ,0,0,1.,24.0,0.,24.0,1.,24.0,0.,24.0
1979-07-02 21:49:47.160 ,1,1,0.,24.0,0.,24.0,0.,24.0,0.,24.0
1979-07-02 21:50:11.160 ,1,0,0.,24.0,0.,24.0,0.,24.0,0.,24.0
1979-07-02 21:50:35.160 ,2,1,1.,24.0,0.,24.0,1.,24.0,0.,24.0
1979-07-02 21:50:59.160 ,2,0,0.,24.0,0.,24.0,1.,24.0,0.,24.0
1979-07-02 21:51:23.160 ,3,1,0.,24.0,0.,24.0,1.,24.0,0.,24.0
1979-07-02 21:51:47.160 ,3,0,0.,24.0,0.,24.0,0.,24.0,0.,24.0
1979-07-02 21:52:11.160 ,4,1,0.,24.0,0.,24.0,0.,24.0,0.,24.0
1979-07-02 21:52:35.160 ,4,0,0.,24.0,0.,24.0,0.,24.0,0.,24.0
1979-07-02 21:52:59.160 ,5,1,0.,24.0,0.,24.0,0.,24.0,0.,24.0
1979-07-02 21:53:23.160 ,5,0,0.,24.0,0.,24.0,1.,24.0,0.,24.0
1979-07-02 21:53:47.160 ,6,1,0.,24.0,0.,24.0,0.,24.0,0.,24.0
1979-07-02 21:54:11.160 ,6,0,0.,24.0,0.,24.0,0.,24.0,0.,24.0
1979-07-02 21:54:35.160 ,7,0,8.,24.0,0.,24.0,0.,24.0,0.,24.0
1979-07-02 21:54:59.160 ,7,0,33.,24.0,0.,24.0,0.,24.0,0.,24.0
1979-07-02 21:55:23.160 ,5,1,9.,24.0,0.,24.0,0.,24.0,0.,24.0
1979-07-02 21:55:47.160 ,1,1,0.,24.0,0.,24.0,0.,24.0,0.,24.0
1979-07-02 21:56:11.160 ,2,1,0.,24.0,0.,24.0,0.,24.0,0.,24.0
1979-07-02 21:56:35.160 ,6,1,0.,24.0,0.,24.0,0.,24.0,0.,24.0
1979-07-02 21:56:59.160 ,5,1,17.,24.0,0.,24.0,0.,24.0,0.,24.0
1979-07-02 21:57:23.160 ,1,1,0.,24.0,0.,24.0,0.,24.0,0.,24.0
1979-07-02 21:57:47.160 ,2,1,0.,24.0,0.,24.0,0.,24.0,0.,24.0
1979-07-02 21:58:11.160 ,6,1,0.,24.0,1.,24.0,1.,24.0,0.,24.0
1979-07-02 21:58:35.160 ,5,1,12.,24.0,0.,24.0,0.,24.0,0.,24.0
1979-07-02 21:58:59.160 ,1,1,0.,24.0,0.,24.0,0.,24.0,0.,24.0
1979-07-02 21:59:23.160 ,2,1,0.,24.0,0.,24.0,0.,24.0,0.,24.0
1979-07-02 21:59:47.160 ,6,1,0.,24.0,0.,24.0,0.,24.0,0.,24.0
1979-07-02 22:00:11.160 ,5,1,17.,24.0,0.,24.0,0.,24.0,0.,24.0
1979-07-02 22:00:35.160 ,1,1,0.,24.0,0.,24.0,0.,24.0,0.,24.0
1979-07-02 22:00:59.160 ,2,1,1.,24.0,0.,24.0,0.,24.0,0.,24.0
1979-07-02 22:01:23.160 ,6,1,0.,24.0,0.,24.0,1.,24.0,0.,24.0
1979-07-02 22:01:47.160 ,5,1,10.,24.0,0.,24.0,0.,24.0,0.,24.0
1979-07-02 22:02:11.160 ,1,1,0.,24.0,0.,24.0,0.,24.0,0.,24.0
1979-07-02 22:02:35.160 ,2,1,0.,24.0,0.,24.0,0.,24.0,0.,24.0
1979-07-02 22:02:59.160 ,6,1,0.,24.0,0.,24.0,0.,24.0,0.,24.0
1979-07-02 22:03:23.160 ,5,1,16.,24.0,0.,24.0,0.,24.0,0.,24.0
1979-07-02 22:03:47.160 ,1,1,0.,24.0,0.,24.0,0.,24.0,0.,24.0
1979-07-02 22:04:11.160 ,2,1,0.,24.0,0.,24.0,0.,24.0,0.,24.0
1979-07-02 22:04:35.160 ,6,1,0.,24.0,0.,24.0,0.,24.0,0.,24.0
1979-07-02 22:04:59.160 ,5,1,15.,24.0,0.,24.0,0.,24.0,0.,24.0
1979-07-02 22:05:23.160 ,1,1,0.,24.0,0.,24.0,1.,24.0,0.,24.0
1979-07-02 22:05:47.160 ,0,0,0.,24.0,0.,24.0,0.,24.0,0.,24.0
1979-07-02 22:06:11.160 ,0,0,0.,24.0,0.,24.0,0.,24.0,0.,24.0
1979-07-02 22:06:35.160 ,5,1,14.,24.0,0.,24.0,0.,24.0,0.,24.0
1979-07-02 22:06:59.160 ,5,0,0.,24.0,0.,24.0,0.,24.0,0.,24.0
1979-07-02 22:07:23.160 ,4,1,0.,24.0,0.,24.0,0.,24.0,0.,24.0
1979-07-02 22:07:47.160 ,4,0,0.,24.0,0.,24.0,2.,24.0,0.,24.0
1979-07-02 22:08:59.160 ,0,0,0.,24.0,0.,24.0,0.,24.0,0.,24.0
1979-07-02 22:09:23.160 ,0,0,0.,24.0,0.,24.0,0.,24.0,0.,24.0
1979-07-02 22:09:47.160 ,1,1,1.,24.0,0.,24.0,0.,24.0,0.,24.0
1979-07-02 22:10:11.160 ,1,0,0.,24.0,0.,24.0,0.,24.0,0.,24.0
1979-07-02 22:10:35.160 ,0,1,0.,24.0,0.,24.0,0.,24.0,0.,24.0
1979-07-02 22:10:59.160 ,0,0,0.,24.0,0.,24.0,0.,24.0,0.,24.0
1979-07-02 22:11:23.160 ,0,1,0.,24.0,0.,24.0,0.,24.0,0.,24.0
1979-07-02 22:11:47.160 ,0,0,0.,24.0,0.,24.0,0.,24.0,0.,24.0
1979-07-02 22:12:11.160 ,1,1,0.,24.0,0.,24.0,0.,24.0,0.,24.0
1979-07-02 22:12:35.160 ,1,0,0.,24.0,0.,24.0,1.,24.0,0.,24.0
1979-07-02 22:12:59.160 ,2,1,0.,24.0,0.,24.0,0.,24.0,0.,24.0
1979-07-02 22:13:23.160 ,2,0,0.,24.0,0.,24.0,1.,24.0,0.,24.0
1979-07-02 22:13:47.160 ,3,1,0.,24.0,0.,24.0,0.,24.0,0.,24.0
1979-07-02 22:14:11.160 ,3,0,0.,24.0,0.,24.0,0.,24.0,0.,24.0
1979-07-02 22:14:35.160 ,4,1,0.,24.0,0.,24.0,0.,24.0,0.,24.0
1979-07-02 22:14:59.160 ,4,0,0.,24.0,0.,24.0,0.,24.0,0.,24.0
1979-07-02 22:15:23.160 ,5,1,0.,24.0,0.,24.0,0.,24.0,0.,24.0
1979-07-02 22:15:47.160 ,5,0,0.,24.0,0.,24.0,0.,24.0,0.,24.0
1979-07-02 22:16:11.160 ,6,1,0.,24.0,0.,24.0,1.,24.0,0.,24.0
1979-07-02 22:16:35.160 ,6,0,0.,24.0,0.,24.0,1.,24.0,0.,24.0
1979-07-02 22:16:59.160 ,7,1,9.,24.0,0.,24.0,0.,24.0,0.,24.0
1979-07-02 22:17:23.160 ,7,0,32.,24.0,0.,24.0,0.,24.0,0.,24.0
1979-07-02 22:17:47.160 ,7,1,36.,24.0,0.,24.0,0.,24.0,0.,24.0
1979-07-02 22:18:11.160 ,7,0,36.,24.0,0.,24.0,0.,24.0,0.,24.0
1979-07-02 22:18:35.160 ,6,1,23.,24.0,0.,24.0,0.,24.0,0.,24.0
1979-07-02 22:18:59.160 ,6,0,1.,24.0,0.,24.0,0.,24.0,0.,24.0
1979-07-02 22:19:23.160 ,5,1,0.,24.0,0.,24.0,0.,24.0,0.,24.0
1979-07-02 22:19:47.160 ,5,0,1.,24.0,0.,24.0,0.,24.0,0.,24.0
1979-07-02 22:20:11.160 ,4,1,0.,24.0,0.,24.0,0.,24.0,0.,24.0
1979-07-02 22:20:35.160 ,4,0,0.,24.0,0.,24.0,0.,24.0,0.,24.0
1979-07-02 22:20:59.160 ,3,1,0.,24.0,0.,24.0,1.,24.0,0.,24.0
1979-07-02 22:21:23.160 ,3,0,0.,24.0,0.,24.0,1.,24.0,0.,24.0
1979-07-02 22:21:47.160 ,2,1,0.,24.0,0.,24.0,0.,24.0,0.,24.0
1979-07-02 22:22:11.160 ,2,0,0.,24.0,0.,24.0,0.,24.0,0.,24.0
1979-07-02 22:22:35.160 ,1,1,0.,24.0,0.,24.0,0.,24.0,0.,24.0
1979-07-02 22:22:59.160 ,1,0,1.,24.0,0.,24.0,0.,24.0,0.,24.0
1979-07-02 22:23:23.160 ,0,1,0.,24.0,0.,24.0,0.,24.0,0.,24.0
1979-07-02 22:23:47.160 ,0,0,0.,24.0,0.,24.0,0.,24.0,0.,24.0
1979-07-02 22:24:11.160 ,0,1,1.,24.0,0.,24.0,0.,24.0,0.,24.0
1979-07-02 22:24:35.160 ,0,0,0.,24.0,0.,24.0,1.,24.0,0.,24.0
1979-07-02 22:24:59.160 ,1,1,0.,24.0,0.,24.0,0.,24.0,0.,24.0
1979-07-02 22:25:23.160 ,1,0,1.,24.0,0.,24.0,0.,24.0,0.,24.0
1979-07-02 22:26:35.160 ,0,0,1.,24.0,0.,24.0,2.,24.0,0.,24.0
1979-07-02 22:26:59.160 ,0,0,0.,24.0,0.,24.0,1.,24.0,0.,24.0
1979-07-02 22:27:23.160 ,4,1,0.,24.0,0.,24.0,0.,24.0,0.,24.0
1979-07-02 22:27:47.160 ,4,0,0.,24.0,0.,24.0,0.,24.0,0.,24.0
1979-07-02 22:28:11.160 ,5,1,0.,24.0,0.,24.0,0.,24.0,0.,24.0
1979-07-02 22:28:35.160 ,5,0,1.,24.0,0.,24.0,1.,24.0,0.,24.0
1979-07-02 22:28:59.160 ,6,1,1.,24.0,0.,24.0,0.,24.0,0.,24.0
1979-07-02 22:29:23.160 ,6,0,0.,24.0,0.,24.0,0.,24.0,0.,24.0
1979-07-02 22:29:47.160 ,7,1,8.,24.0,0.,24.0,0.,24.0,0.,24.0
1979-07-02 22:30:11.160 ,7,0,34.,24.0,0.,24.0,0.,24.0,0.,24.0
1979-07-02 22:30:35.160 ,7,1,33.,24.0,0.,24.0,0.,24.0,0.,24.0
1979-07-02 22:30:59.160 ,7,0,29.,24.0,0.,24.0,0.,24.0,0.,24.0
1979-07-02 22:31:23.160 ,6,1,16.,24.0,0.,24.0,1.,24.0,0.,24.0
1979-07-02 22:31:47.160 ,6,0,0.,24.0,0.,24.0,0.,24.0,0.,24.0
1979-07-02 22:32:11.160 ,5,1,1.,24.0,0.,24.0,0.,24.0,0.,24.0
1979-07-02 22:32:35.160 ,5,0,0.,24.0,0.,24.0,0.,24.0,0.,24.0
1979-07-02 22:32:59.160 ,4,1,0.,24.0,1.,24.0,1.,24.0,0.,24.0
1979-07-02 22:33:23.160 ,4,0,1.,24.0,0.,24.0,0.,24.0,0.,24.0
1979-07-02 22:33:47.160 ,3,1,0.,24.0,0.,24.0,1.,24.0,0.,24.0
1979-07-02 22:34:11.160 ,3,0,0.,24.0,0.,24.0,0.,24.0,0.,24.0
1979-07-02 22:34:35.160 ,2,1,0.,24.0,0.,24.0,0.,24.0,0.,24.0
1979-07-02 22:34:59.160 ,2,0,0.,24.0,0.,24.0,2.,24.0,0.,24.0
1979-07-02 22:35:23.160 ,1,1,0.,24.0,0.,24.0,0.,24.0,0.,24.0
1979-07-02 22:35:47.160 ,1,0,0.,24.0,0.,24.0,0.,24.0,0.,24.0
1979-07-02 22:36:11.160 ,0,1,1.,24.0,0.,24.0,0.,24.0,0.,24.0
1979-07-02 22:36:35.160 ,0,0,0.,24.0,0.,24.0,0.,24.0,0.,24.0
1979-07-02 22:36:59.160 ,0,1,0.,24.0,0.,24.0,0.,24.0,0.,24.0
1979-07-02 22:37:23.160 ,0,0,0.,24.0,0.,24.0,0.,24.0,0.,24.0
1979-07-02 22:37:47.160 ,1,1,1.,24.0,0.,24.0,1.,24.0,0.,24.0
1979-07-02 22:38:11.160 ,1,0,0.,24.0,0.,24.0,1.,24.0,0.,24.0
1979-07-02 22:38:35.160 ,2,1,0.,24.0,0.,24.0,0.,24.0,0.,24.0
1979-07-02 22:38:59.160 ,2,0,0.,24.0,0.,24.0,0.,24.0,0.,24.0
1979-07-02 22:39:23.160 ,3,1,1.,24.0,1.,24.0,0.,24.0,0.,24.0
1979-07-02 22:39:47.160 ,3,0,0.,24.0,0.,24.0,1.,24.0,0.,24.0
1979-07-02 22:40:11.160 ,4,1,2.,24.0,0.,24.0,0.,24.0,0.,24.0
1979-07-02 22:40:35.160 ,4,0,0.,24.0,0.,24.0,0.,24.0,0.,24.0
1979-07-02 22:40:59.160 ,5,1,0.,24.0,0.,24.0,0.,24.0,0.,24.0
1979-07-02 22:41:23.160 ,5,0,0.,24.0,0.,24.0,0.,24.0,0.,24.0
1979-07-02 22:41:47.160 ,6,1,1.,24.0,1.,24.0,0.,24.0,0.,24.0
1979-07-02 22:42:11.160 ,6,0,0.,24.0,0.,24.0,0.,24.0,0.,24.0
1979-07-02 22:42:35.160 ,7,0,2.,24.0,1.,24.0,0.,24.0,0.,24.0
1979-07-02 22:42:59.160 ,7,0,33.,24.0,0.,24.0,0.,24.0,0.,24.0
1979-07-02 22:43:23.160 ,5,1,10.,24.0,0.,24.0,0.,24.0,0.,24.0
1979-07-02 22:43:47.160 ,1,1,0.,24.0,0.,24.0,0.,24.0,0.,24.0
1979-07-02 22:44:11.160 ,2,1,0.,24.0,0.,24.0,2.,24.0,0.,24.0
1979-07-02 22:44:35.160 ,6,1,0.,24.0,0.,24.0,0.,24.0,0.,24.0
1979-07-02 22:44:59.160 ,5,1,12.,24.0,0.,24.0,0.,24.0,0.,24.0
1979-07-02 22:45:23.160 ,1,1,0.,24.0,0.,24.0,1.,24.0,0.,24.0
1979-07-02 22:45:47.160 ,2,1,1.,24.0,1.,24.0,1.,24.0,0.,24.0
1979-07-02 22:46:11.160 ,6,1,0.,24.0,0.,24.0,0.,24.0,0.,24.0
1979-07-02 22:46:35.160 ,5,1,19.,24.0,0.,24.0,0.,24.0,0.,24.0
1979-07-02 22:46:59.160 ,1,1,1.,24.0,0.,24.0,1.,24.0,0.,24.0
1979-07-02 22:47:23.160 ,2,1,0.,24.0,0.,24.0,0.,24.0,0.,24.0
1979-07-02 22:47:47.160 ,6,1,0.,24.0,0.,24.0,0.,24.0,0.,24.0
1979-07-02 22:48:11.160 ,5,1,19.,24.0,0.,24.0,0.,24.0,0.,24.0
1979-07-02 22:48:35.160 ,1,1,0.,24.0,1.,24.0,0.,24.0,0.,24.0
1979-07-02 22:48:59.160 ,2,1,0.,24.0,0.,24.0,0.,24.0,0.,24.0
1979-07-02 22:49:23.160 ,6,1,0.,24.0,0.,24.0,1.,24.0,0.,24.0
1979-07-02 22:49:47.160 ,5,1,23.,24.0,0.,24.0,0.,24.0,0.,24.0
1979-07-02 22:50:11.160 ,1,1,0.,24.0,0.,24.0,0.,24.0,0.,24.0
1979-07-02 22:50:35.160 ,2,1,0.,24.0,0.,24.0,0.,24.0,0.,24.0
1979-07-02 22:50:59.160 ,6,1,0.,24.0,0.,24.0,0.,24.0,0.,24.0
1979-07-02 22:51:23.160 ,5,1,19.,24.0,0.,24.0,0.,24.0,0.,24.0
1979-07-02 22:51:47.160 ,1,1,0.,24.0,0.,24.0,0.,24.0,0.,24.0
1979-07-02 22:52:11.160 ,2,1,0.,24.0,0.,24.0,0.,24.0,0.,24.0
1979-07-02 22:52:35.160 ,6,1,0.,24.0,0.,24.0,1.,24.0,0.,24.0
1979-07-02 22:52:59.160 ,5,1,13.,24.0,0.,24.0,0.,24.0,0.,24.0
1979-07-02 22:53:23.160 ,1,1,0.,24.0,0.,24.0,0.,24.0,0.,24.0
1979-07-02 22:53:47.160 ,0,0,0.,24.0,0.,24.0,0.,24.0,0.,24.0
1979-07-02 22:54:11.160 ,0,0,1.,24.0,0.,24.0,0.,24.0,0.,24.0
1979-07-02 22:54:35.160 ,5,1,11.,24.0,0.,24.0,0.,24.0,0.,24.0
1979-07-02 22:54:59.160 ,5,0,0.,24.0,0.,24.0,0.,24.0,0.,24.0
1979-07-02 22:55:23.160 ,4,1,0.,24.0,0.,24.0,0.,24.0,0.,24.0
1979-07-02 22:55:47.160 ,4,0,0.,24.0,0.,24.0,0.,24.0,0.,24.0
1979-07-02 22:56:11.160 ,3,1,0.,24.0,0.,24.0,1.,24.0,0.,24.0
1979-07-02 22:56:35.160 ,3,0,0.,24.0,0.,24.0,0.,24.0,0.,24.0
1979-07-02 22:56:59.160 ,2,1,0.,24.0,0.,24.0,1.,24.0,0.,24.0
1979-07-02 22:57:23.160 ,2,0,0.,24.0,0.,24.0,0.,24.0,0.,24.0
1979-07-02 22:57:47.160 ,1,1,0.,24.0,0.,24.0,0.,24.0,0.,24.0
1979-07-02 22:58:11.160 ,1,0,0.,24.0,0.,24.0,0.,24.0,0.,24.0
1979-07-02 22:58:35.160 ,0,1,0.,24.0,0.,24.0,0.,24.0,0.,24.0
1979-07-02 22:58:59.160 ,0,0,0.,24.0,0.,24.0,0.,24.0,0.,24.0
1979-07-02 22:59:23.160 ,0,1,0.,24.0,0.,24.0,0.,24.0,0.,24.0
1979-07-02 22:59:47.160 ,0,0,0.,24.0,0.,24.0,0.,24.0,0.,24.0
1979-07-02 23:00:11.160 ,1,1,0.,24.0,0.,24.0,1.,24.0,0.,24.0
1979-07-02 23:00:35.160 ,1,0,0.,24.0,0.,24.0,0.,24.0,0.,24.0
1979-07-02 23:00:59.160 ,2,1,0.,24.0,0.,24.0,0.,24.0,0.,24.0
1979-07-02 23:01:23.160 ,2,0,0.,24.0,0.,24.0,0.,24.0,0.,24.0
1979-07-02 23:01:47.160 ,3,1,0.,24.0,0.,24.0,1.,24.0,0.,24.0
1979-07-02 23:02:11.160 ,3,0,1.,24.0,0.,24.0,1.,24.0,0.,24.0
1979-07-02 23:02:35.160 ,4,1,0.,24.0,0.,24.0,0.,24.0,0.,24.0
1979-07-02 23:02:59.160 ,4,0,0.,24.0,0.,24.0,1.,24.0,0.,24.0
1979-07-02 23:03:23.160 ,5,1,0.,24.0,0.,24.0,0.,24.0,0.,24.0
1979-07-02 23:03:47.160 ,5,0,0.,24.0,0.,24.0,0.,24.0,0.,24.0
1979-07-02 23:04:11.160 ,6,1,0.,24.0,0.,24.0,0.,24.0,0.,24.0
1979-07-02 23:04:35.160 ,6,0,2.,24.0,0.,24.0,0.,24.0,0.,24.0
1979-07-02 23:04:59.160 ,7,1,7.,24.0,0.,24.0,0.,24.0,0.,24.0
1979-07-02 23:05:23.160 ,7,0,26.,24.0,0.,24.0,0.,24.0,0.,24.0
1979-07-02 23:05:47.160 ,7,1,35.,24.0,0.,24.0,0.,24.0,0.,24.0
1979-07-02 23:06:11.160 ,7,0,35.,24.0,1.,24.0,0.,24.0,0.,24.0
1979-07-02 23:06:35.160 ,6,1,23.,24.0,0.,24.0,0.,24.0,0.,24.0
1979-07-02 23:06:59.160 ,6,0,0.,24.0,0.,24.0,0.,24.0,0.,24.0
1979-07-02 23:07:23.160 ,5,1,0.,24.0,0.,24.0,0.,24.0,0.,24.0
1979-07-02 23:07:47.160 ,5,0,1.,24.0,1.,24.0,0.,24.0,0.,24.0
1979-07-02 23:08:11.160 ,4,1,0.,24.0,0.,24.0,1.,24.0,0.,24.0
1979-07-02 23:08:35.160 ,4,0,0.,24.0,0.,24.0,0.,24.0,0.,24.0
1979-07-02 23:08:59.160 ,3,1,0.,24.0,1.,24.0,0.,24.0,0.,24.0
1979-07-02 23:09:23.160 ,3,0,0.,24.0,0.,24.0,0.,24.0,0.,24.0
1979-07-02 23:09:47.160 ,0,0,1.,24.0,0.,24.0,0.,24.0,0.,24.0
1979-07-02 23:10:11.160 ,0,0,0.,24.0,0.,24.0,0.,24.0,0.,24.0
1979-07-02 23:10:35.160 ,1,1,0.,24.0,0.,24.0,0.,24.0,0.,24.0
1979-07-02 23:10:59.160 ,1,0,0.,24.0,0.,24.0,0.,24.0,0.,24.0
1979-07-02 23:11:23.160 ,0,1,0.,24.0,0.,24.0,0.,24.0,0.,24.0
1979-07-02 23:11:47.160 ,0,0,0.,24.0,0.,24.0,0.,24.0,0.,24.0
1979-07-02 23:12:11.160 ,0,1,0.,24.0,0.,24.0,0.,24.0,0.,24.0
1979-07-02 23:12:35.160 ,0,0,0.,24.0,0.,24.0,0.,24.0,0.,24.0
1979-07-02 23:12:59.160 ,1,1,1.,24.0,0.,24.0,0.,24.0,0.,24.0
1979-07-02 23:13:23.160 ,1,0,0.,24.0,0.,24.0,0.,24.0,0.,24.0
1979-07-02 23:13:47.160 ,2,1,1.,24.0,0.,24.0,0.,24.0,0.,24.0
1979-07-02 23:14:11.160 ,2,0,0.,24.0,0.,24.0,0.,24.0,0.,24.0
1979-07-02 23:14:35.160 ,3,1,1.,24.0,0.,24.0,1.,24.0,0.,24.0
1979-07-02 23:14:59.160 ,3,0,1.,24.0,0.,24.0,0.,24.0,0.,24.0
1979-07-02 23:15:23.160 ,4,1,0.,24.0,0.,24.0,0.,24.0,0.,24.0
1979-07-02 23:15:47.160 ,4,0,0.,24.0,0.,24.0,0.,24.0,0.,24.0
1979-07-02 23:16:11.160 ,5,1,0.,24.0,0.,24.0,0.,24.0,0.,24.0
1979-07-02 23:16:35.160 ,5,0,0.,24.0,0.,24.0,0.,24.0,0.,24.0
1979-07-02 23:16:59.160 ,6,1,0.,24.0,0.,24.0,0.,24.0,0.,24.0
1979-07-02 23:17:23.160 ,6,0,0.,24.0,0.,24.0,0.,24.0,0.,24.0
1979-07-02 23:17:47.160 ,7,1,9.,24.0,0.,24.0,0.,24.0,0.,24.0
1979-07-02 23:18:11.160 ,7,0,33.,24.0,0.,24.0,0.,24.0,0.,24.0
1979-07-02 23:18:35.160 ,7,1,28.,24.0,0.,24.0,0.,24.0,0.,24.0
1979-07-02 23:18:59.160 ,7,0,36.,24.0,0.,24.0,0.,24.0,0.,24.0
1979-07-02 23:19:23.160 ,6,1,31.,24.0,0.,24.0,0.,24.0,0.,24.0
1979-07-02 23:19:47.160 ,6,0,0.,24.0,0.,24.0,0.,24.0,0.,24.0
1979-07-02 23:20:11.160 ,5,1,0.,24.0,0.,24.0,1.,24.0,0.,24.0
1979-07-02 23:20:35.160 ,5,0,0.,24.0,0.,24.0,1.,24.0,0.,24.0
1979-07-02 23:20:59.160 ,4,1,0.,24.0,0.,24.0,0.,24.0,0.,24.0
1979-07-02 23:21:23.160 ,4,0,0.,24.0,0.,24.0,0.,24.0,0.,24.0
1979-07-02 23:21:47.160 ,3,1,0.,24.0,0.,24.0,0.,24.0,0.,24.0
1979-07-02 23:22:11.160 ,3,0,0.,24.0,0.,24.0,0.,24.0,0.,24.0
1979-07-02 23:22:35.160 ,2,1,0.,24.0,0.,24.0,0.,24.0,0.,24.0
1979-07-02 23:22:59.160 ,2,0,0.,24.0,0.,24.0,0.,24.0,0.,24.0
1979-07-02 23:23:23.160 ,1,1,1.,24.0,0.,24.0,0.,24.0,0.,24.0
1979-07-02 23:23:47.160 ,1,0,0.,24.0,0.,24.0,0.,24.0,0.,24.0
1979-07-02 23:24:11.160 ,0,1,0.,24.0,0.,24.0,0.,24.0,0.,24.0
1979-07-02 23:24:35.160 ,0,0,0.,24.0,0.,24.0,0.,24.0,0.,24.0
1979-07-02 23:24:59.160 ,0,1,0.,24.0,0.,24.0,0.,24.0,0.,24.0
1979-07-02 23:25:23.160 ,0,0,0.,24.0,0.,24.0,0.,24.0,0.,24.0
1979-07-02 23:25:47.160 ,1,1,0.,24.0,0.,24.0,1.,24.0,0.,24.0
1979-07-02 23:26:11.160 ,1,0,0.,24.0,0.,24.0,0.,24.0,0.,24.0
1979-07-02 23:26:35.160 ,2,1,0.,24.0,0.,24.0,0.,24.0,0.,24.0
1979-07-02 23:26:59.160 ,2,0,0.,24.0,0.,24.0,0.,24.0,0.,24.0
1979-07-02 23:27:23.160 ,3,1,0.,24.0,0.,24.0,0.,24.0,0.,24.0
1979-07-02 23:27:47.160 ,3,0,0.,24.0,0.,24.0,1.,24.0,0.,24.0
1979-07-02 23:28:11.160 ,4,1,0.,24.0,1.,24.0,0.,24.0,0.,24.0
1979-07-02 23:28:35.160 ,4,0,0.,24.0,0.,24.0,0.,24.0,0.,24.0
1979-07-02 23:28:59.160 ,5,1,0.,24.0,0.,24.0,0.,24.0,0.,24.0
1979-07-02 23:29:23.160 ,5,0,0.,24.0,0.,24.0,2.,24.0,0.,24.0
1979-07-02 23:29:47.160 ,6,1,0.,24.0,0.,24.0,0.,24.0,0.,24.0
1979-07-02 23:30:11.160 ,6,0,0.,24.0,0.,24.0,0.,24.0,0.,24.0
1979-07-02 23:30:35.160 ,7,0,6.,24.0,0.,24.0,2.,24.0,0.,24.0
1979-07-02 23:30:59.160 ,7,0,30.,24.0,0.,24.0,0.,24.0,0.,24.0
1979-07-02 23:31:23.160 ,5,1,14.,24.0,0.,24.0,0.,24.0,0.,24.0
1979-07-02 23:31:47.160 ,1,1,0.,24.0,0.,24.0,0.,24.0,0.,24.0
1979-07-02 23:32:11.160 ,2,1,0.,24.0,0.,24.0,0.,24.0,0.,24.0
1979-07-02 23:32:35.160 ,6,1,0.,24.0,0.,24.0,1.,24.0,0.,24.0
1979-07-02 23:32:59.160 ,5,1,11.,24.0,0.,24.0,1.,24.0,0.,24.0
1979-07-02 23:33:23.160 ,1,1,0.,24.0,0.,24.0,1.,24.0,0.,24.0
1979-07-02 23:33:47.160 ,2,1,0.,24.0,0.,24.0,0.,24.0,0.,24.0
1979-07-02 23:34:11.160 ,6,1,1.,24.0,0.,24.0,1.,24.0,0.,24.0
1979-07-02 23:34:35.160 ,5,1,16.,24.0,0.,24.0,0.,24.0,0.,24.0
1979-07-02 23:34:59.160 ,1,1,0.,24.0,0.,24.0,0.,24.0,0.,24.0
1979-07-02 23:35:23.160 ,2,1,0.,24.0,0.,24.0,0.,24.0,0.,24.0
1979-07-02 23:35:47.160 ,6,1,1.,24.0,0.,24.0,0.,24.0,0.,24.0